Vorticity
3 7 6 10 -13 5 9 3 3 -1 4 -7 10 -5 2 7 -4 8 6 14 6 1 3 1 3 4 8 9 10 11 12 10 10 8 6 5 3 2 3 2 3 5 4 0 5 6 7 7 8
5 5 4 9 5 1 7 5 2 6 -0 3 18 3 5 4 -3 -1 12 14 6 4 4 5 8 8 8 8 9 8 8 8 7 8 8 8 6 4 2 2 2 3 4 4 1 4 4 6 6
6 4 1 -11 0 17 9 8 17 12 5 2 7 -1 8 15 9 -2 11 11 9 9 9 7 7 8 8 7 7 7 6 7 8 10 11 9 8 9 6 3 2 1 2 6 3 3 -1 3 6
5 2 -1 -8 8 5 -1 16 14 8 6 6 7 2 10 12 8 5 6 6 6 6 6 6 7 7 8 8 6 7 7 8 8 9 13 15 14 10 9 7 3 2 2 -2 3 1 2 6 4
5 2 -7 -2 0 2 8 5 8 7 2 4 7 0 12 4 6 8 6 6 6 5 6 6 7 7 7 7 7 6 5 7 8 8 8 9 13 16 16 10 8 5 2 1 1 3 3 3 3
2 -1 6 -4 2 0 12 8 11 4 3 3 4 2 4 9 7 7 6 5 5 5 6 7 6 6 6 6 5 5 5 5 6 6 5 7 11 14 17 16 14 10 7 3 1 -0 2 2 3
4 -6 10 11 11 7 4 13 9 6 4 3 3 6 6 9 6 6 5 5 5 6 6 6 6 6 6 5 5 4 5 4 3 3 3 4 6 9 12 17 19 16 12 8 5 2 1 2 1
4 -1 -5 1 3 2 11 12 6 7 4 4 7 16 2 9 6 6 5 5 5 6 6 5 5 5 5 5 4 4 4 4 4 4 4 3 3 4 6 9 16 19 16 14 10 6 3 1 2
5 -1 -7 -5 5 4 7 13 8 5 6 6 7 -5 4 9 9 7 6 5 5 6 6 6 6 5 4 4 4 4 3 3 4 4 4 4 3 3 3 4 6 13 19 18 13 12 8 3 2
6 2 12 -6 -0 -2 12 12 9 6 5 3 5 8 4 5 9 9 7 5 6 5 5 6 7 6 5 4 4 3 3 3 4 4 5 5 4 3 4 4 4 5 8 18 21 15 14 10 3
4 4 -0 6 10 6 11 11 9 4 3 5 5 6 5 8 8 8 6 6 8 7 7 6 6 6 5 4 4 4 5 5 4 3 4 4 5 5 4 4 4 4 5 6 13 17 18 16 12
8 7 7 1 2 8 10 10 7 5 4 9 5 6 6 7 7 7 8 7 5 6 6 6 6 5 5 5 5 5 5 5 6 7 6 5 4 5 5 5 5 5 5 6 6 10 15 17 21
6 8 7 1 2 9 11 10 6 6 6 4 7 6 6 7 8 7 7 6 6 5 5 5 5 5 5 5 5 6 6 6 6 6 7 7 7 6 5 5 5 5 5 5 6 5 8 14 18
13 5 3 7 6 10 10 8 9 5 6 5 5 6 6 7 7 7 6 5 5 5 5 5 5 6 6 6 7 6 7 7 7 7 6 6 6 6 7 6 6 6 6 6 6 6 6 8 13
5 6 12 4 8 9 7 8 10 3 7 6 5 6 6 6 6 6 6 5 5 4 4 4 6 7 7 7 6 7 7 7 6 7 7 7 7 6 6 5 6 7 7 6 7 6 6 5 8
3 8 3 10 8 8 6 11 7 7 3 6 6 6 6 6 5 6 6 6 5 5 6 7 7 6 7 8 7 7 6 6 7 7 7 7 7 8 7 6 6 6 7 7 7 7 7 6 6
16 12 8 9 9 0 5 14 3 10 3 5 4 7 6 6 7 7 6 5 5 6 6 7 8 7 7 6 6 6 5 6 6 7 8 8 8 8 7 7 7 7 7 7 7 7 6 6 8
-1 4 4 10 11 7 3 5 -3 9 6 11 5 5 5 5 6 5 6 6 6 7 7 6 5 4 5 6 5 5 5 5 6 7 7 8 8 8 8 7 7 7 7 8 8 7 7 7 8
6 12 15 8 9 2 13 5 4 1 1 7 8 7 6 6 6 6 5 6 7 8 6 4 4 4 5 5 6 5 5 5 5 7 7 8 8 8 8 8 8 8 8 8 8 7 7 7 7
5 10 7 10 8 7 5 7 12 4 4 3 3 5 5 5 5 6 8 9 9 7 6 4 4 6 4 4 4 6 6 6 6 6 8 8 8 8 8 9 8 8 9 9 9 7 6 6 7
0 4 7 -8 13 8 8 13 4 6 6 8 5 4 4 4 5 5 6 10 8 7 6 4 3 5 4 3 4 7 7 7 6 6 8 8 8 8 8 8 8 9 9 10 9 7 6 6 7
9 4 -1 7 1 -5 11 12 16 25 11 4 5 4 5 5 5 5 6 9 9 7 7 5 4 4 2 3 6 6 8 7 7 6 9 9 8 8 8 9 9 9 9 9 9 6 6 7 7
11 12 9 8 5 -3 6 0 36 33 7 -0 7 15 16 10 7 6 6 8 8 6 6 5 2 5 4 4 6 7 9 7 7 7 10 8 7 7 8 8 9 9 9 9 8 7 6 5 7
6 15 14 15 11 36 2 -20 35 -1 -0 5 3 8 9 10 10 11 10 8 8 7 4 2 2 4 4 8 7 7 8 8 8 8 10 8 7 8 8 9 8 8 8 9 9 8 6 6 7
12 19 5 11 16 6 21 22 -24 24 12 29 26 15 8 13 7 8 7 10 12 11 9 11 10 9 8 8 6 6 9 10 9 8 8 7 7 8 9 8 8 9 9 9 8 7 7 7 7
5 -8 -40 5 8 18 10 11 -28 10 22 2 4 -4 -5 9 16 13 14 12 9 12 11 14 10 10 7 5 8 8 10 9 9 8 8 8 8 8 9 9 9 8 8 8 9 8 8 7 6
31 -1 1 -18 10 7 6 31 31 5 14 16 17 17 13 13 1 7 6 18 13 11 10 8 5 11 7 8 11 10 9 12 8 7 7 7 7 8 9 9 9 8 8 8 7 7 8 7 7
-19 28 19 1 1 7 22 11 -29 22 30 26 14 7 13 4 6 10 20 16 24 16 4 6 8 11 14 14 6 14 13 9 8 7 6 6 7 8 9 9 9 8 8 8 8 8 8 7 6
-3 6 -4 20 -24 2 4 24 27 28 18 19 14 5 9 16 7 18 18 8 2 4 6 9 16 10 10 6 7 13 10 12 12 8 5 6 6 7 8 8 9 9 9 9 8 7 7 7 7
15 6 -1 -21 24 17 -22 3 -1 16 20 18 15 11 9 -1 22 10 0 5 5 6 9 12 5 3 4 7 10 12 8 10 11 10 5 6 5 5 7 9 8 9 10 10 9 8 7 7 7
Height
3165 3168 3171 3173 3179 3176 3177 3179 3180 3181 3184 3184 3185 3186 3187 3187 3188 3193 3190 3190 3191 3193 3194 3195 3195 3194 3194 3193 3193 3193 3192 3192 3192 3192 3192 3191 3191 3191 3192 3192 3192 3192 3192 3192 3192 3192 3191 3190 3188
3166 3169 3172 3174 3176 3175 3177 3178 3179 3181 3183 3184 3185 3186 3187 3187 3188 3189 3189 3189 3191 3192 3194 3194 3194 3194 3194 3193 3193 3192 3191 3191 3191 3191 3190 3190 3190 3190 3190 3190 3191 3192 3191 3192 3192 3191 3191 3191 3189
3166 3169 3172 3174 3174 3175 3176 3176 3178 3180 3181 3183 3185 3186 3186 3187 3188 3188 3188 3189 3191 3192 3193 3194 3194 3194 3194 3194 3193 3192 3192 3191 3190 3190 3190 3189 3189 3189 3189 3190 3190 3191 3191 3191 3191 3191 3191 3191 3190
3167 3171 3173 3174 3174 3174 3175 3176 3178 3180 3182 3183 3184 3186 3187 3187 3187 3189 3189 3190 3190 3191 3192 3193 3193 3194 3194 3194 3193 3192 3192 3191 3190 3190 3189 3188 3187 3187 3187 3187 3188 3189 3190 3190 3190 3191 3191 3190 3190
3166 3170 3171 3173 3174 3173 3174 3176 3178 3180 3182 3183 3184 3186 3186 3186 3187 3189 3190 3191 3191 3191 3192 3193 3193 3194 3194 3193 3193 3193 3192 3192 3191 3189 3189 3188 3186 3185 3185 3185 3186 3187 3188 3189 3189 3190 3190 3190 3190
3166 3169 3171 3172 3173 3173 3174 3176 3177 3179 3181 3182 3184 3185 3186 3187 3188 3188 3190 3191 3192 3192 3192 3193 3193 3193 3193 3193 3194 3194 3193 3192 3191 3190 3189 3188 3186 3185 3184 3183 3183 3184 3185 3186 3187 3188 3189 3189 3189
3165 3168 3171 3171 3172 3173 3174 3175 3176 3179 3180 3182 3183 3184 3186 3186 3187 3189 3190 3191 3192 3193 3193 3193 3193 3194 3193 3193 3193 3193 3194 3193 3192 3191 3190 3188 3187 3185 3183 3182 3182 3182 3182 3183 3185 3186 3187 3188 3188
3164 3168 3169 3170 3170 3172 3173 3173 3174 3177 3179 3181 3183 3184 3186 3186 3187 3188 3189 3190 3192 3193 3193 3193 3194 3194 3194 3194 3194 3194 3194 3193 3192 3192 3190 3189 3187 3186 3184 3183 3181 3180 3180 3180 3181 3183 3185 3186 3187
3163 3166 3168 3168 3169 3170 3172 3172 3174 3176 3178 3180 3182 3184 3184 3185 3186 3188 3189 3190 3191 3192 3192 3193 3193 3193 3194 3194 3195 3195 3194 3194 3193 3192 3191 3189 3188 3187 3185 3184 3182 3180 3179 3178 3179 3180 3182 3184 3185
3161 3164 3165 3167 3167 3169 3170 3171 3173 3176 3177 3178 3179 3183 3183 3184 3185 3186 3188 3189 3190 3191 3192 3192 3192 3193 3193 3194 3194 3194 3194 3193 3193 3192 3191 3190 3189 3187 3185 3184 3182 3180 3179 3178 3177 3177 3178 3180 3182
3158 3161 3164 3166 3166 3168 3168 3169 3171 3173 3175 3177 3178 3180 3181 3182 3183 3185 3186 3188 3189 3190 3191 3192 3192 3192 3193 3193 3193 3193 3193 3193 3192 3191 3191 3190 3189 3187 3186 3184 3183 3181 3179 3177 3176 3175 3175 3176 3178
3157 3160 3163 3165 3165 3166 3167 3168 3169 3171 3174 3176 3177 3179 3180 3181 3182 3184 3185 3187 3188 3189 3190 3191 3192 3192 3192 3192 3192 3192 3192 3192 3191 3191 3190 3189 3188 3187 3186 3185 3183 3182 3180 3178 3176 3175 3174 3174 3174
3156 3158 3161 3163 3164 3164 3165 3167 3168 3170 3172 3174 3176 3177 3179 3180 3181 3183 3184 3185 3186 3188 3189 3190 3191 3191 3191 3191 3191 3191 3191 3191 3190 3190 3190 3189 3188 3186 3185 3184 3183 3182 3180 3178 3177 3176 3174 3173 3172
3154 3156 3158 3160 3162 3162 3163 3165 3166 3168 3170 3172 3174 3176 3177 3179 3180 3181 3183 3184 3185 3186 3187 3188 3189 3190 3190 3190 3190 3190 3190 3190 3189 3189 3188 3187 3186 3185 3185 3183 3182 3181 3180 3179 3177 3176 3174 3172 3171
3151 3154 3155 3157 3158 3160 3161 3163 3164 3166 3168 3170 3172 3174 3175 3177 3179 3180 3181 3182 3183 3184 3185 3186 3186 3187 3188 3188 3188 3188 3188 3188 3187 3187 3187 3186 3185 3184 3183 3182 3182 3180 3180 3178 3177 3176 3174 3173 3170
3147 3150 3152 3153 3155 3157 3160 3159 3161 3163 3165 3167 3169 3171 3173 3174 3176 3177 3179 3181 3182 3182 3183 3183 3184 3184 3185 3186 3186 3186 3186 3186 3186 3186 3185 3184 3183 3183 3182 3181 3180 3179 3178 3178 3176 3175 3174 3172 3170
3143 3145 3147 3150 3151 3154 3156 3157 3158 3160 3162 3164 3166 3168 3169 3171 3173 3175 3176 3178 3179 3179 3180 3181 3181 3182 3183 3183 3183 3183 3183 3183 3182 3182 3182 3181 3181 3180 3180 3179 3178 3177 3177 3176 3175 3173 3173 3171 3170
3138 3141 3143 3146 3149 3149 3151 3153 3156 3157 3159 3161 3162 3164 3166 3168 3170 3171 3173 3174 3176 3177 3178 3179 3179 3179 3180 3180 3180 3180 3180 3180 3180 3179 3178 3178 3178 3177 3177 3176 3176 3175 3175 3174 3174 3173 3172 3171 3169
3137 3138 3139 3143 3145 3147 3148 3149 3152 3154 3155 3156 3158 3160 3162 3164 3165 3167 3168 3170 3172 3174 3174 3175 3176 3176 3177 3177 3177 3177 3177 3177 3176 3176 3176 3176 3176 3175 3175 3174 3174 3173 3173 3173 3173 3172 3171 3171 3170
3133 3134 3136 3139 3141 3143 3142 3143 3146 3147 3149 3152 3154 3155 3158 3159 3161 3163 3164 3166 3168 3170 3171 3172 3172 3173 3173 3174 3174 3174 3174 3173 3173 3173 3173 3172 3172 3172 3172 3172 3172 3171 3170 3171 3170 3170 3170 3169 3168
3129 3130 3133 3136 3137 3138 3138 3136 3138 3142 3143 3146 3148 3150 3151 3154 3156 3157 3159 3162 3163 3165 3167 3167 3168 3169 3169 3170 3170 3170 3170 3170 3170 3170 3169 3169 3169 3168 3168 3169 3169 3169 3169 3169 3168 3169 3169 3168 3167
3125 3127 3130 3132 3134 3134 3134 3128 3129 3134 3136 3138 3142 3143 3146 3148 3150 3152 3154 3156 3158 3160 3161 3163 3164 3164 3165 3166 3167 3167 3167 3167 3167 3167 3166 3166 3166 3165 3165 3166 3166 3166 3167 3167 3167 3167 3167 3167 3167
3120 3124 3127 3129 3129 3130 3127 3130 3119 3125 3127 3131 3134 3137 3139 3141 3143 3145 3148 3151 3152 3153 3155 3157 3158 3159 3161 3162 3162 3163 3163 3163 3163 3163 3163 3163 3163 3163 3162 3163 3163 3164 3164 3164 3164 3165 3165 3164 3164
3117 3121 3124 3126 3127 3124 3119 3124 3109 3115 3120 3125 3128 3130 3133 3134 3135 3138 3140 3142 3144 3146 3148 3151 3153 3154 3155 3156 3157 3158 3158 3158 3159 3159 3160 3160 3160 3159 3159 3159 3160 3160 3161 3161 3162 3163 3162 3162 3162
3111 3117 3123 3130 3129 3114 3113 3115 3098 3107 3113 3116 3120 3122 3125 3127 3127 3129 3132 3135 3138 3140 3143 3144 3146 3148 3149 3150 3150 3152 3152 3153 3154 3155 3155 3156 3156 3156 3156 3156 3156 3156 3157 3158 3158 3159 3160 3160 3159
3106 3109 3108 3120 3120 3107 3109 3098 3092 3102 3107 3109 3113 3116 3118 3119 3121 3122 3126 3129 3131 3133 3135 3137 3140 3141 3142 3143 3144 3145 3146 3147 3148 3150 3151 3152 3152 3152 3151 3151 3151 3152 3153 3154 3155 3155 3155 3156 3157
3098 3101 3103 3105 3105 3105 3097 3091 3094 3096 3100 3103 3105 3108 3111 3112 3114 3116 3118 3121 3124 3126 3129 3132 3134 3135 3136 3137 3138 3139 3140 3142 3143 3145 3146 3146 3147 3147 3147 3146 3147 3148 3149 3149 3150 3151 3152 3152 3153
3091 3094 3101 3102 3107 3107 3089 3087 3087 3091 3094 3097 3098 3101 3103 3105 3108 3110 3112 3114 3117 3120 3123 3125 3127 3129 3130 3131 3132 3133 3134 3136 3137 3139 3140 3141 3142 3142 3142 3143 3143 3144 3145 3145 3146 3146 3147 3148 3149
3084 3085 3090 3093 3093 3091 3096 3082 3082 3085 3088 3091 3093 3095 3097 3099 3103 3105 3107 3109 3113 3115 3118 3119 3121 3123 3124 3125 3126 3127 3128 3130 3131 3132 3134 3136 3137 3137 3138 3138 3139 3140 3140 3140 3141 3142 3143 3143 3144
3074 3076 3081 3082 3083 3085 3084 3076 3081 3082 3085 3087 3088 3090 3091 3094 3096 3100 3103 3105 3108 3110 3112 3114 3116 3117 3118 3119 3120 3120 3121 3122 3124 3126 3128 3130 3131 3132 3133 3134 3134 3134 3135 3135 3136 3137 3137 3138 3139